Wetterdaten: Montag, 13.09.2010
Datum Zeit Temp. A. Feuchte A. Luftdruck Regen Wind Richtung Richtung Sonnenschein UV Solar Windben
13.09.2010 00:00 14,3 C 93 % 1020,7 hPa 0,0 mm 0,0 km/h (0 Bft) W-SW 247 0 min 0 UV-I 0 W/m 3,2 km/h (1 Bft)
13.09.2010 00:10 14,3 C 93 % 1020,7 hPa 0,0 mm 0,0 km/h (0 Bft) W-SW 247 0 min 0 UV-I 0 W/m 1,6 km/h (1 Bft)
13.09.2010 00:20 14,3 C 93 % 1020,7 hPa 0,0 mm 0,0 km/h (0 Bft) W-SW 247 0 min 0 UV-I 0 W/m 4,8 km/h (1 Bft)
13.09.2010 00:30 14,3 C 93 % 1020,7 hPa 0,0 mm 0,0 km/h (0 Bft) W 270 0 min 0 UV-I 0 W/m 6,4 km/h (2 Bft)
13.09.2010 00:40 14,3 C 93 % 1020,7 hPa 0,8 mm 3,2 km/h (1 Bft) W 270 0 min 0 UV-I 0 W/m 9,7 km/h (2 Bft)
13.09.2010 00:50 14,2 C 93 % 1020,7 hPa 0,3 mm 1,6 km/h (1 Bft) NW 315 0 min 0 UV-I 0 W/m 6,4 km/h (2 Bft)
13.09.2010 01:00 14,1 C 93 % 1020,8 hPa 0,0 mm 1,6 km/h (1 Bft) NW 315 0 min 0 UV-I 0 W/m 8,0 km/h (2 Bft)
13.09.2010 01:10 14,0 C 93 % 1020,8 hPa 0,0 mm 0,0 km/h (0 Bft) NW 315 0 min 0 UV-I 0 W/m 4,8 km/h (1 Bft)
13.09.2010 01:20 14,0 C 93 % 1020,7 hPa 0,0 mm 0,0 km/h (0 Bft) NW 315 0 min 0 UV-I 0 W/m 1,6 km/h (1 Bft)
13.09.2010 01:30 14,0 C 93 % 1020,8 hPa 0,0 mm 0,0 km/h (0 Bft) NW 315 0 min 0 UV-I 0 W/m 4,8 km/h (1 Bft)
13.09.2010 01:40 14,1 C 93 % 1020,9 hPa 0,0 mm 1,6 km/h (1 Bft) W 270 0 min 0 UV-I 0 W/m 6,4 km/h (2 Bft)
13.09.2010 01:50 14,2 C 93 % 1020,9 hPa 0,0 mm 0,0 km/h (0 Bft) W 270 0 min 0 UV-I 0 W/m 6,4 km/h (2 Bft)
13.09.2010 02:00 14,2 C 93 % 1020,7 hPa 0,0 mm 1,6 km/h (1 Bft) NW 315 0 min 0 UV-I 0 W/m 8,0 km/h (2 Bft)
13.09.2010 02:10 14,2 C 93 % 1020,7 hPa 0,0 mm 1,6 km/h (1 Bft) W 270 0 min 0 UV-I 0 W/m 11,3 km/h (2 Bft)
13.09.2010 02:20 14,2 C 93 % 1020,8 hPa 0,0 mm 1,6 km/h (1 Bft) W 270 0 min 0 UV-I 0 W/m 6,4 km/h (2 Bft)
13.09.2010 02:30 14,1 C 93 % 1020,9 hPa 0,0 mm 1,6 km/h (1 Bft) W-NW 292 0 min 0 UV-I 0 W/m 6,4 km/h (2 Bft)
13.09.2010 02:40 14,1 C 93 % 1021,0 hPa 0,0 mm 3,2 km/h (1 Bft) W-NW 292 0 min 0 UV-I 0 W/m 8,0 km/h (2 Bft)
13.09.2010 02:50 14,1 C 93 % 1021,1 hPa 0,0 mm 1,6 km/h (1 Bft) W 270 0 min 0 UV-I 0 W/m 8,0 km/h (2 Bft)
13.09.2010 03:00 14,0 C 93 % 1021,2 hPa 0,0 mm 1,6 km/h (1 Bft) W 270 0 min 0 UV-I 0 W/m 8,0 km/h (2 Bft)
13.09.2010 03:10 13,9 C 93 % 1021,3 hPa 0,0 mm 1,6 km/h (1 Bft) W 270 0 min 0 UV-I 0 W/m 11,3 km/h (2 Bft)
13.09.2010 03:20 13,8 C 93 % 1021,4 hPa 0,0 mm 1,6 km/h (1 Bft) W-NW 292 0 min 0 UV-I 0 W/m 9,7 km/h (2 Bft)
13.09.2010 03:30 13,7 C 93 % 1021,5 hPa 0,0 mm 1,6 km/h (1 Bft) W-NW 292 0 min 0 UV-I 0 W/m 9,7 km/h (2 Bft)
13.09.2010 03:40 13,6 C 93 % 1021,6 hPa 0,0 mm 1,6 km/h (1 Bft) W-NW 292 0 min 0 UV-I 0 W/m 9,7 km/h (2 Bft)
13.09.2010 03:50 13,6 C 93 % 1021,7 hPa 0,0 mm 3,2 km/h (1 Bft) W 270 0 min 0 UV-I 0 W/m 9,7 km/h (2 Bft)
13.09.2010 04:00 13,5 C 93 % 1021,7 hPa 0,0 mm 3,2 km/h (1 Bft) W 270 0 min 0 UV-I 0 W/m 11,3 km/h (2 Bft)
13.09.2010 04:10 13,4 C 93 % 1021,8 hPa 0,0 mm 4,8 km/h (1 Bft) W-NW 292 0 min 0 UV-I 0 W/m 11,3 km/h (2 Bft)
13.09.2010 04:20 13,3 C 93 % 1021,9 hPa 0,0 mm 3,2 km/h (1 Bft) W-NW 292 0 min 0 UV-I 0 W/m 9,7 km/h (2 Bft)
13.09.2010 04:30 13,3 C 93 % 1022,0 hPa 0,0 mm 4,8 km/h (1 Bft) W 270 0 min 0 UV-I 0 W/m 9,7 km/h (2 Bft)
13.09.2010 04:40 13,3 C 93 % 1022,1 hPa 0,0 mm 3,2 km/h (1 Bft) W 270 0 min 0 UV-I 0 W/m 14,5 km/h (3 Bft)
13.09.2010 04:50 13,2 C 93 % 1022,2 hPa 0,0 mm 1,6 km/h (1 Bft) W-NW 292 0 min 0 UV-I 0 W/m 8,0 km/h (2 Bft)
13.09.2010 05:00 13,2 C 93 % 1022,2 hPa 0,0 mm 3,2 km/h (1 Bft) W 270 0 min 0 UV-I 0 W/m 12,9 km/h (3 Bft)
13.09.2010 05:10 13,1 C 93 % 1022,3 hPa 0,0 mm 3,2 km/h (1 Bft) W 270 0 min 0 UV-I 0 W/m 16,1 km/h (3 Bft)
13.09.2010 05:20 13,1 C 92 % 1022,4 hPa 0,0 mm 4,8 km/h (1 Bft) W 270 0 min 0 UV-I 0 W/m 11,3 km/h (2 Bft)
13.09.2010 05:30 12,9 C 92 % 1022,4 hPa 0,0 mm 4,8 km/h (1 Bft) W-NW 292 0 min 0 UV-I 0 W/m 16,1 km/h (3 Bft)
13.09.2010 05:40 12,9 C 92 % 1022,4 hPa 0,0 mm 1,6 km/h (1 Bft) W-NW 292 0 min 0 UV-I 0 W/m 8,0 km/h (2 Bft)
13.09.2010 05:50 12,9 C 92 % 1022,4 hPa 0,0 mm 1,6 km/h (1 Bft) W 270 0 min 0 UV-I 0 W/m 6,4 km/h (2 Bft)
13.09.2010 06:00 12,9 C 92 % 1022,3 hPa 0,0 mm 1,6 km/h (1 Bft) W 270 0 min 0 UV-I 0 W/m 11,3 km/h (2 Bft)
13.09.2010 06:10 12,8 C 92 % 1022,4 hPa 0,0 mm 1,6 km/h (1 Bft) W-NW 292 0 min 0 UV-I 0 W/m 8,0 km/h (2 Bft)
13.09.2010 06:20 12,8 C 92 % 1022,4 hPa 0,0 mm 1,6 km/h (1 Bft) W-NW 292 0 min 0 UV-I 0 W/m 8,0 km/h (2 Bft)
13.09.2010 06:30 12,8 C 92 % 1022,4 hPa 0,0 mm 1,6 km/h (1 Bft) W 270 0 min 0 UV-I 0 W/m 11,3 km/h (2 Bft)
13.09.2010 06:40 12,8 C 92 % 1022,4 hPa 0,0 mm 1,6 km/h (1 Bft) W 270 0 min 0 UV-I 0 W/m 6,4 km/h (2 Bft)
13.09.2010 06:50 12,8 C 92 % 1022,6 hPa 0,0 mm 1,6 km/h (1 Bft) W 270 0 min 0 UV-I 0 W/m 6,4 km/h (2 Bft)
13.09.2010 07:00 12,8 C 92 % 1022,7 hPa 0,0 mm 1,6 km/h (1 Bft) W-NW 292 0 min 0 UV-I 0 W/m 8,0 km/h (2 Bft)
13.09.2010 07:10 12,8 C 92 % 1022,8 hPa 0,0 mm 1,6 km/h (1 Bft) W-NW 292 0 min 0 UV-I 0 W/m 4,8 km/h (1 Bft)
13.09.2010 07:20 12,8 C 92 % 1023,0 hPa 0,0 mm 0,0 km/h (0 Bft) W-NW 292 0 min 0 UV-I 0 W/m 8,0 km/h (2 Bft)
13.09.2010 07:30 12,8 C 92 % 1023,1 hPa 0,0 mm 1,6 km/h (1 Bft) W-NW 292 0 min 0 UV-I 5 W/m 14,5 km/h (3 Bft)
13.09.2010 07:40 12,8 C 92 % 1023,1 hPa 0,0 mm 1,6 km/h (1 Bft) W-NW 292 0 min 0 UV-I 7 W/m 6,4 km/h (2 Bft)
13.09.2010 07:50 12,8 C 92 % 1023,2 hPa 0,0 mm 1,6 km/h (1 Bft) W-NW 292 0 min 0 UV-I 14 W/m 8,0 km/h (2 Bft)
13.09.2010 08:00 12,8 C 92 % 1023,3 hPa 0,0 mm 2,1 km/h (1 Bft) W-SW 254 0 min 0 UV-I 20 W/m 6,4 km/h (2 Bft)
13.09.2010 08:10 12,9 C 92 % 1023,3 hPa 0,0 mm 3,2 km/h (1 Bft) W 270 0 min 0 UV-I 23 W/m 14,5 km/h (3 Bft)
13.09.2010 08:20 12,9 C 92 % 1023,4 hPa 0,0 mm 1,6 km/h (1 Bft) W 270 0 min 0 UV-I 32 W/m 8,0 km/h (2 Bft)
13.09.2010 08:30 13,0 C 92 % 1023,4 hPa 0,0 mm 3,2 km/h (1 Bft) W 270 0 min 0 UV-I 40 W/m 8,0 km/h (2 Bft)
13.09.2010 08:40 13,0 C 91 % 1023,5 hPa 0,0 mm 3,2 km/h (1 Bft) W 270 0 min 0 UV-I 33 W/m 14,5 km/h (3 Bft)
13.09.2010 08:50 13,0 C 91 % 1023,5 hPa 0,0 mm 4,8 km/h (1 Bft) W-NW 292 0 min 0 UV-I 33 W/m 9,7 km/h (2 Bft)
13.09.2010 09:00 12,9 C 91 % 1023,6 hPa 0,0 mm 3,2 km/h (1 Bft) W 270 0 min 0 UV-I 46 W/m 9,7 km/h (2 Bft)
13.09.2010 09:10 13,0 C 91 % 1023,8 hPa 0,0 mm 1,6 km/h (1 Bft) W 270 0 min 0 UV-I 56 W/m 8,0 km/h (2 Bft)
13.09.2010 09:20 13,0 C 91 % 1023,8 hPa 0,0 mm 3,2 km/h (1 Bft) W 270 0 min 0 UV-I 42 W/m 9,7 km/h (2 Bft)
13.09.2010 09:30 13,0 C 91 % 1023,8 hPa 0,0 mm 3,2 km/h (1 Bft) W 270 0 min 0 UV-I 44 W/m 12,9 km/h (3 Bft)
13.09.2010 09:40 12,9 C 91 % 1024,0 hPa 0,0 mm 4,8 km/h (1 Bft) W 270 0 min 1 UV-I 60 W/m 12,9 km/h (3 Bft)
13.09.2010 09:50 13,0 C 91 % 1024,0 hPa 0,0 mm 3,2 km/h (1 Bft) W 270 0 min 1 UV-I 86 W/m 11,3 km/h (2 Bft)
13.09.2010 10:00 13,1 C 91 % 1024,1 hPa 0,0 mm 3,2 km/h (1 Bft) W 270 0 min 1 UV-I 105 W/m 11,3 km/h (2 Bft)
13.09.2010 10:10 13,2 C 91 % 1024,3 hPa 0,0 mm 3,2 km/h (1 Bft) W-SW 247 0 min 1 UV-I 70 W/m 11,3 km/h (2 Bft)
13.09.2010 10:20 13,1 C 90 % 1024,4 hPa 0,0 mm 4,8 km/h (1 Bft) W-SW 247 0 min 1 UV-I 93 W/m 11,3 km/h (2 Bft)
13.09.2010 10:30 13,2 C 90 % 1024,5 hPa 0,0 mm 3,2 km/h (1 Bft) W 270 0 min 1 UV-I 114 W/m 11,3 km/h (2 Bft)
13.09.2010 10:40 13,3 C 90 % 1024,5 hPa 0,0 mm 1,6 km/h (1 Bft) W 270 0 min 1 UV-I 88 W/m 8,0 km/h (2 Bft)
13.09.2010 10:50 13,3 C 90 % 1024,6 hPa 0,0 mm 3,2 km/h (1 Bft) W-SW 247 0 min 1 UV-I 63 W/m 11,3 km/h (2 Bft)
13.09.2010 11:00 13,4 C 90 % 1024,6 hPa 0,0 mm 1,6 km/h (1 Bft) W-SW 247 0 min 1 UV-I 65 W/m 4,8 km/h (1 Bft)
13.09.2010 11:10 13,5 C 89 % 1024,6 hPa 0,0 mm 3,2 km/h (1 Bft) W-SW 247 0 min 1 UV-I 70 W/m 11,3 km/h (2 Bft)
13.09.2010 11:20 13,4 C 90 % 1024,6 hPa 0,0 mm 3,2 km/h (1 Bft) W-SW 247 0 min 1 UV-I 83 W/m 9,7 km/h (2 Bft)
13.09.2010 11:30 13,6 C 89 % 1024,7 hPa 0,0 mm 3,2 km/h (1 Bft) W-SW 247 0 min 2 UV-I 216 W/m 14,5 km/h (3 Bft)
13.09.2010 11:40 13,9 C 88 % 1024,8 hPa 0,0 mm 3,2 km/h (1 Bft) W 270 0 min 2 UV-I 213 W/m 14,5 km/h (3 Bft)
13.09.2010 11:50 14,1 C 87 % 1024,8 hPa 0,0 mm 3,2 km/h (1 Bft) W 270 0 min 1 UV-I 127 W/m 9,7 km/h (2 Bft)
13.09.2010 12:00 14,1 C 87 % 1024,8 hPa 0,0 mm 3,2 km/h (1 Bft) W-SW 247 0 min 1 UV-I 167 W/m 11,3 km/h (2 Bft)
13.09.2010 12:10 14,3 C 87 % 1024,8 hPa 0,0 mm 3,2 km/h (1 Bft) W 270 0 min 2 UV-I 260 W/m 9,7 km/h (2 Bft)
13.09.2010 12:20 14,8 C 85 % 1024,8 hPa 0,0 mm 3,2 km/h (1 Bft) W-SW 247 0 min 3 UV-I 345 W/m 11,3 km/h (2 Bft)
13.09.2010 12:30 14,9 C 84 % 1024,7 hPa 0,0 mm 1,6 km/h (1 Bft) W 270 0 min 2 UV-I 165 W/m 6,4 km/h (2 Bft)
13.09.2010 12:40 14,9 C 84 % 1024,7 hPa 0,0 mm 1,6 km/h (1 Bft) W 270 0 min 1 UV-I 183 W/m 9,7 km/h (2 Bft)
13.09.2010 12:50 15,0 C 84 % 1024,8 hPa 0,0 mm 1,6 km/h (1 Bft) N 360 0 min 2 UV-I 156 W/m 4,8 km/h (1 Bft)
13.09.2010 13:00 15,2 C 81 % 1024,7 hPa 0,0 mm 3,2 km/h (1 Bft) W-SW 247 10 min 4 UV-I 756 W/m 8,0 km/h (2 Bft)
13.09.2010 13:10 16,2 C 77 % 1024,4 hPa 0,0 mm 3,2 km/h (1 Bft) W 270 10 min 4 UV-I 844 W/m 9,7 km/h (2 Bft)
13.09.2010 13:20 16,5 C 76 % 1024,5 hPa 0,0 mm 3,2 km/h (1 Bft) W 270 10 min 4 UV-I 490 W/m 14,5 km/h (3 Bft)
13.09.2010 13:30 16,4 C 75 % 1024,6 hPa 0,0 mm 3,2 km/h (1 Bft) W-SW 247 10 min 4 UV-I 740 W/m 11,3 km/h (2 Bft)
13.09.2010 13:40 17,0 C 73 % 1024,5 hPa 0,0 mm 1,6 km/h (1 Bft) W 270 10 min 5 UV-I 788 W/m 6,4 km/h (2 Bft)
13.09.2010 13:50 17,5 C 72 % 1024,5 hPa 0,0 mm 1,6 km/h (1 Bft) W-NW 292 0 min 4 UV-I 169 W/m 6,4 km/h (2 Bft)
13.09.2010 14:00 16,8 C 74 % 1024,4 hPa 0,0 mm 1,6 km/h (1 Bft) W-NW 292 0 min 2 UV-I 118 W/m 6,4 km/h (2 Bft)
13.09.2010 14:10 16,3 C 74 % 1024,4 hPa 0,0 mm 1,6 km/h (1 Bft) NW 315 0 min 2 UV-I 118 W/m 6,4 km/h (2 Bft)
13.09.2010 14:20 16,2 C 74 % 1024,4 hPa 0,0 mm 0,0 km/h (0 Bft) W-NW 292 10 min 4 UV-I 793 W/m 4,8 km/h (1 Bft)
13.09.2010 14:30 17,1 C 70 % 1024,3 hPa 0,0 mm 1,6 km/h (1 Bft) W-NW 292 10 min 4 UV-I 758 W/m 8,0 km/h (2 Bft)
13.09.2010 14:40 17,0 C 71 % 1024,4 hPa 0,0 mm 3,2 km/h (1 Bft) W-SW 247 0 min 2 UV-I 262 W/m 14,5 km/h (3 Bft)
13.09.2010 14:50 16,7 C 71 % 1024,3 hPa 0,0 mm 1,6 km/h (1 Bft) W-SW 247 0 min 1 UV-I 234 W/m 8,0 km/h (2 Bft)
13.09.2010 15:00 16,8 C 71 % 1024,3 hPa 0,0 mm 1,6 km/h (1 Bft) W-SW 247 0 min 2 UV-I 216 W/m 8,0 km/h (2 Bft)
13.09.2010 15:10 16,7 C 70 % 1024,3 hPa 0,0 mm 3,2 km/h (1 Bft) W 270 0 min 2 UV-I 178 W/m 11,3 km/h (2 Bft)
13.09.2010 15:20 16,7 C 71 % 1024,3 hPa 0,0 mm 3,2 km/h (1 Bft) W-SW 247 0 min 2 UV-I 162 W/m 11,3 km/h (2 Bft)
13.09.2010 15:30 16,7 C 73 % 1024,2 hPa 0,0 mm 1,6 km/h (1 Bft) W-SW 247 0 min 1 UV-I 162 W/m 8,0 km/h (2 Bft)
13.09.2010 15:40 16,7 C 71 % 1024,2 hPa 0,0 mm 3,2 km/h (1 Bft) W 270 0 min 2 UV-I 236 W/m 8,0 km/h (2 Bft)
13.09.2010 15:50 17,0 C 69 % 1024,1 hPa 0,0 mm 1,6 km/h (1 Bft) S-SW 202 10 min 2 UV-I 410 W/m 6,4 km/h (2 Bft)
13.09.2010 16:00 17,9 C 68 % 1023,9 hPa 0,0 mm 4,4 km/h (1 Bft) W 265 10 min 2 UV-I 570 W/m 9,7 km/h (2 Bft)
13.09.2010 16:10 18,2 C 67 % 1023,9 hPa 0,0 mm 3,2 km/h (1 Bft) W 270 10 min 2 UV-I 577 W/m 14,5 km/h (3 Bft)
13.09.2010 16:20 18,3 C 64 % 1023,8 hPa 0,0 mm 3,2 km/h (1 Bft) W 270 10 min 2 UV-I 570 W/m 11,3 km/h (2 Bft)
13.09.2010 16:30 18,2 C 66 % 1023,7 hPa 0,0 mm 1,6 km/h (1 Bft) W-SW 247 10 min 2 UV-I 598 W/m 9,7 km/h (2 Bft)
13.09.2010 16:40 19,0 C 60 % 1023,7 hPa 0,0 mm 6,4 km/h (2 Bft) W-SW 247 10 min 2 UV-I 594 W/m 16,1 km/h (3 Bft)
13.09.2010 16:50 18,9 C 59 % 1023,7 hPa 0,0 mm 6,4 km/h (2 Bft) S-SW 202 10 min 2 UV-I 475 W/m 16,1 km/h (3 Bft)
13.09.2010 17:00 18,1 C 62 % 1023,9 hPa 0,0 mm 4,8 km/h (1 Bft) W-SW 247 0 min 1 UV-I 132 W/m 16,1 km/h (3 Bft)
13.09.2010 17:10 17,6 C 64 % 1024,0 hPa 0,0 mm 3,2 km/h (1 Bft) W 270 0 min 1 UV-I 111 W/m 17,7 km/h (3 Bft)
13.09.2010 17:20 17,3 C 64 % 1023,8 hPa 0,0 mm 3,2 km/h (1 Bft) W-SW 247 0 min 1 UV-I 162 W/m 11,3 km/h (2 Bft)
13.09.2010 17:30 17,3 C 65 % 1023,8 hPa 0,0 mm 3,2 km/h (1 Bft) W 270 10 min 1 UV-I 251 W/m 14,5 km/h (3 Bft)
13.09.2010 17:40 17,3 C 66 % 1023,7 hPa 0,0 mm 3,2 km/h (1 Bft) W 270 0 min 1 UV-I 156 W/m 17,7 km/h (3 Bft)
13.09.2010 17:50 17,2 C 66 % 1023,7 hPa 0,0 mm 3,2 km/h (1 Bft) W-SW 247 10 min 1 UV-I 218 W/m 9,7 km/h (2 Bft)
13.09.2010 18:00 17,1 C 67 % 1023,7 hPa 0,0 mm 3,2 km/h (1 Bft) W 270 0 min 1 UV-I 95 W/m 9,7 km/h (2 Bft)
13.09.2010 18:10 16,8 C 69 % 1023,8 hPa 0,0 mm 1,6 km/h (1 Bft) W 270 0 min 1 UV-I 76 W/m 4,8 km/h (1 Bft)
13.09.2010 18:20 16,8 C 70 % 1024,0 hPa 0,0 mm 1,6 km/h (1 Bft) W 270 0 min 1 UV-I 69 W/m 6,4 km/h (2 Bft)
13.09.2010 18:30 16,7 C 69 % 1024,0 hPa 0,0 mm 1,6 km/h (1 Bft) W 270 0 min 0 UV-I 76 W/m 6,4 km/h (2 Bft)
13.09.2010 18:40 16,7 C 70 % 1023,9 hPa 0,0 mm 1,6 km/h (1 Bft) W-SW 247 0 min 0 UV-I 58 W/m 6,4 km/h (2 Bft)
13.09.2010 18:50 16,6 C 70 % 1023,8 hPa 0,0 mm 0,0 km/h (0 Bft) W-SW 247 0 min 0 UV-I 42 W/m 3,2 km/h (1 Bft)
13.09.2010 19:00 16,6 C 71 % 1023,8 hPa 0,0 mm 0,0 km/h (0 Bft) W-SW 247 0 min 0 UV-I 30 W/m 1,6 km/h (1 Bft)
13.09.2010 19:10 16,4 C 72 % 1023,8 hPa 0,0 mm 0,0 km/h (0 Bft) W-SW 247 0 min 0 UV-I 26 W/m 1,6 km/h (1 Bft)
13.09.2010 19:20 16,3 C 73 % 1023,7 hPa 0,0 mm 0,0 km/h (0 Bft) W-SW 247 0 min 0 UV-I 14 W/m 1,6 km/h (1 Bft)
13.09.2010 19:30 16,2 C 74 % 1023,6 hPa 0,0 mm 0,0 km/h (0 Bft) W-SW 247 0 min 0 UV-I 9 W/m 1,6 km/h (1 Bft)
13.09.2010 19:40 16,1 C 74 % 1023,5 hPa 0,0 mm 0,0 km/h (0 Bft) W-SW 247 0 min 0 UV-I 5 W/m 3,2 km/h (1 Bft)
13.09.2010 19:50 15,9 C 75 % 1023,3 hPa 0,0 mm 0,0 km/h (0 Bft) W-SW 247 0 min 0 UV-I 0 W/m 1,6 km/h (1 Bft)
13.09.2010 20:00 15,7 C 76 % 1023,4 hPa 0,0 mm 0,0 km/h (0 Bft) W-SW 247 0 min 0 UV-I 0 W/m 1,6 km/h (1 Bft)
13.09.2010 20:10 15,6 C 77 % 1023,3 hPa 0,0 mm 0,0 km/h (0 Bft) W-SW 247 0 min 0 UV-I 0 W/m 3,2 km/h (1 Bft)
13.09.2010 20:20 15,4 C 78 % 1023,4 hPa 0,0 mm 0,0 km/h (0 Bft) W-SW 247 0 min 0 UV-I 0 W/m 1,6 km/h (1 Bft)
13.09.2010 20:30 15,2 C 78 % 1023,4 hPa 0,0 mm 0,0 km/h (0 Bft) W-SW 247 0 min 0 UV-I 0 W/m 1,6 km/h (1 Bft)
13.09.2010 20:40 15,1 C 79 % 1023,3 hPa 0,0 mm 0,0 km/h (0 Bft) W-SW 247 0 min 0 UV-I 0 W/m 1,6 km/h (1 Bft)
13.09.2010 20:50 14,8 C 80 % 1023,3 hPa 0,0 mm 0,0 km/h (0 Bft) W-SW 247 0 min 0 UV-I 0 W/m 1,6 km/h (1 Bft)
13.09.2010 21:00 14,4 C 81 % 1023,2 hPa 0,0 mm 0,0 km/h (0 Bft) N 0 0 min 0 UV-I 0 W/m 0,0 km/h (0 Bft)
13.09.2010 21:10 14,2 C 81 % 1023,3 hPa 0,0 mm 0,0 km/h (0 Bft) W-SW 247 0 min 0 UV-I 0 W/m 1,6 km/h (1 Bft)
13.09.2010 21:20 14,1 C 81 % 1023,2 hPa 0,0 mm 0,0 km/h (0 Bft) W-SW 247 0 min 0 UV-I 0 W/m 1,6 km/h (1 Bft)
13.09.2010 21:30 14,0 C 81 % 1023,2 hPa 0,0 mm 0,0 km/h (0 Bft) W-SW 247 0 min 0 UV-I 0 W/m 3,2 km/h (1 Bft)
13.09.2010 21:40 13,9 C 81 % 1023,1 hPa 0,0 mm 0,0 km/h (0 Bft) W-SW 247 0 min 0 UV-I 0 W/m 3,2 km/h (1 Bft)
13.09.2010 21:50 13,9 C 81 % 1023,2 hPa 0,0 mm 0,0 km/h (0 Bft) W-SW 247 0 min 0 UV-I 0 W/m 4,8 km/h (1 Bft)
13.09.2010 22:00 14,0 C 81 % 1023,0 hPa 0,0 mm 0,0 km/h (0 Bft) W-SW 247 0 min 0 UV-I 0 W/m 4,8 km/h (1 Bft)
13.09.2010 22:10 14,1 C 80 % 1023,1 hPa 0,0 mm 0,0 km/h (0 Bft) SW 225 0 min 0 UV-I 0 W/m 4,8 km/h (1 Bft)
13.09.2010 22:20 14,1 C 80 % 1023,1 hPa 0,0 mm 0,0 km/h (0 Bft) SW 225 0 min 0 UV-I 0 W/m 4,8 km/h (1 Bft)
13.09.2010 22:30 14,0 C 81 % 1022,9 hPa 0,0 mm 0,0 km/h (0 Bft) SW 225 0 min 0 UV-I 0 W/m 4,8 km/h (1 Bft)
13.09.2010 22:40 13,9 C 81 % 1022,9 hPa 0,0 mm 0,0 km/h (0 Bft) SW 225 0 min 0 UV-I 0 W/m 4,8 km/h (1 Bft)
13.09.2010 22:50 13,8 C 81 % 1023,0 hPa 0,0 mm 0,0 km/h (0 Bft) SW 225 0 min 0 UV-I 0 W/m 6,4 km/h (2 Bft)
13.09.2010 23:00 13,7 C 81 % 1022,9 hPa 0,0 mm 0,0 km/h (0 Bft) SW 225 0 min 0 UV-I 0 W/m 4,8 km/h (1 Bft)
13.09.2010 23:10 13,7 C 81 % 1022,7 hPa 0,0 mm 1,6 km/h (1 Bft) SW 225 0 min 0 UV-I 0 W/m 6,4 km/h (2 Bft)
13.09.2010 23:20 13,6 C 81 % 1022,6 hPa 0,0 mm 0,0 km/h (0 Bft) S-SW 202 0 min 0 UV-I 0 W/m 4,8 km/h (1 Bft)
13.09.2010 23:30 13,6 C 81 % 1022,6 hPa 0,0 mm 0,0 km/h (0 Bft) S-SW 202 0 min 0 UV-I 0 W/m 4,8 km/h (1 Bft)
13.09.2010 23:40 13,5 C 80 % 1022,6 hPa 0,0 mm 0,0 km/h (0 Bft) SW 225 0 min 0 UV-I 0 W/m 4,8 km/h (1 Bft)
13.09.2010 23:50 13,5 C 80 % 1022,4 hPa 0,0 mm 0,0 km/h (0 Bft) SW 225 0 min 0 UV-I 0 W/m 4,8 km/h (1 Bft)
_ Min-Zeit 06:10 16:50 00:00 - 00:00 - - - - - 21:00
Minimum _ 12,8 C 59 % 1020,7 hPa - 0,0 km/h (0 Bft) - - - - - 0,0 km/h (0 Bft)
_ Max-Zeit 16:40 00:00 11:40 00:40 16:40 - - 13:00 13:40 13:10 17:10
Maximum _ 19,2 C 93 % 1024,8 hPa 0,8 mm 6,4 km/h
W-SW (2 Bft)
- - 10 min 5 UV-I 844 W/m 17,7 km/h
W (3 Bft)
Durchschnitt _ 14,6 C 83 % 1023,1 hPa #1,0 mm 1,9 km/h (1 Bft) W - #2:40 h 2 UV-I 209 W/m 8,1 km/h (2 Bft)